Regional Weather Roundup
Issued by NWS

Home | Current Version | Previous Version | Graphics & Text | Print | Product List | Glossary On
Versions: 1 2 3 4 5 6 7 8 9 10 11 12 13 14 15 16 17 18 19 20 21 22 23 24 25 26 27 28 29 30 31 32 33 34 35 36 37 38 39 40 41 42 43 44 45 46 47 48 49 50
000
ASUS43 KLSX 110307
RWRMO

WEATHER SUMMARY FOR MISSOURI
NATIONAL WEATHER SERVICE SPRINGFIELD MO
900 PM CST SUN DEC 10 2017

NOTE: "FAIR" INDICATES FEW OR NO CLOUDS BELOW 12,000 FEET WITH NO
       SIGNIFICANT WEATHER AND/OR OBSTRUCTIONS TO VISIBILITY.
       CURRENT SKY AND/OR WEATHER CONDITIONS ARE NOT AVAILABLE FOR
       CHILLICOTHE AND FARMINGTON.

MOZ001>031-035>038-043-044-053-054-110400-
...NORTHERN AND WESTERN MISSOURI...

CITY           SKY/WX    TMP DP  RH WIND       PRES   REMARKS
KANSAS CTY INT CLEAR     45  24  43 SW5       30.13F
KANSAS C DTWN  CLEAR     38  27  64 CALM      30.14S
LEE`S SUMMIT   PTCLDY    48  25  40 SW3       30.14F
ST JOSEPH      CLEAR     30  24  78 SW3       30.13S
CHILLICOTHE      N/A     31  24  75 S3        30.13F
KIRKSVILLE     CLEAR     30  24  78 W3        30.10F

$$
MOZ066>068-077>081-088>096-101>105-110400-
...SOUTHWEST MISSOURI...

CITY           SKY/WX    TMP DP  RH WIND       PRES   REMARKS
SPRINGFIELD    CLEAR     42  23  46 W6        30.17R
JOPLIN         CLEAR     43  24  47 SW3       30.20R
BRANSON        CLEAR     46  23  39 SW6       30.19S

$$
MOZ032>034-039>042-045>050-055>058-069>072-110400-
...CENTRAL MISSOURI...

CITY           SKY/WX    TMP DP  RH WIND       PRES   REMARKS
COLUMBIA       CLEAR     43  25  49 W6        30.14R
JEFFERSON CITY CLEAR     35  25  66 CALM      30.16R
ROLLA          CLEAR     37  25  61 W7        30.15R
SEDALIA        CLEAR     44  27  51 SW6       30.16R
WHITEMAN AFB   CLEAR     36  25  62 SW3       30.11S
WARRENSBURG    CLEAR     36  27  69 S5        30.16S
OSAGE BEACH    CLEAR     37  25  61 CALM      30.17R

$$
MOZ051-052-059>065-110400-
...EAST CENTRAL MISSOURI...

CITY           SKY/WX    TMP DP  RH WIND       PRES   REMARKS
ST LOUIS INTL  CLEAR     41  26  55 W5        30.14R
SPIRIT OF STL  CLEAR     31  24  75 W3        30.14R
ST CHARLES     CLEAR     28  19  69 CALM      30.13R

$$
MOZ072>076-082>087-097>100-106>115-110400-
...SOUTH CENTRAL AND SOUTHEAST MISSOURI...

CITY           SKY/WX    TMP DP  RH WIND       PRES   REMARKS
CAPE GIRARDEAU CLEAR     33  28  81 CALM      30.15R
FARMINGTON     CLEAR     44  25  47 W5        30.15R
POPLAR BLUFF   CLEAR     38  29  70 W3        30.15R
WEST PLAINS    CLEAR     42  23  46 W5        30.17S

$$


USA.gov is the U.S. government's official web portal to all federal, state and local government web resources and services.